カタログに戻る

STARLINK-30243

運用中通信VLEO
NORAD 57648·PAYLOAD·🇺🇸 United States

打ち上げ Aug 17, 2023 から Cape Canaveral Space Force Station

Loading…

次のパス (今後24時間)

TLE

最新Source: CelesTrak SupGP

元期: Sep 14, 2026, 21:10 UTC

1 57648C 23122S   26257.88243056  .00010913  00000+0  39526-3 0  2576
2 57648  43.0024 104.1525 0001913 270.8976 326.8875 15.27572134    13

AllMySatでSTARLINK-30243をリアルタイム追跡

Download on the App Store